DW7267 Weather Reports


Display with metric or nautical units.
time (UTC)temp
F
wind
direction
speed
MPH
gust
MPH
rain 1hr
in
rain 24hr
in
rain mn
in
humidity
%
barometer
mb
20260509063241 48 143 1.0 2.0 0.00 0.00 0.00 52 1018.6
20260509062741 48 116 0.0 3.0 0.00 0.00 0.00 53 1018.7
20260509062509 48 110 0.0 3.0 0.00 0.00 0.00 52 1018.7
20260509061738 49 100 1.0 3.0 0.00 0.00 0.00 52 1018.7
20260509061234 49 99 1.0 3.0 0.00 0.00 0.00 51 1018.6
20260509061007 49 124 1.0 3.0 0.00 0.00 0.00 51 1018.6
20260509060235 49 116 1.0 3.0 0.00 0.00 0.00 50 1018.5
20260509055735 49 126 1.0 2.0 0.00 0.00 0.00 51 1018.6
20260509055232 49 126 1.0 2.0 0.00 0.00 0.00 50 1018.6
20260509054733 50 129 1.0 2.0 0.00 0.00 0.00 50 1018.6
20260509054227 50 133 1.0 2.0 0.00 0.00 0.00 50 1018.6
20260509053729 50 117 0.0 2.0 0.00 0.00 0.00 50 1018.5
20260509052727 50 105 0.0 1.0 0.00 0.00 0.00 50 1018.6
20260509052224 51 105 0.0 1.0 0.00 0.00 0.00 49 1018.6
20260509051958 51 105 0.0 3.0 0.00 0.00 0.00 48 1018.6
20260509051223 52 105 0.0 3.0 0.00 0.00 0.00 47 1018.6
20260509050721 53 105 0.0 3.0 0.00 0.00 0.00 46 1018.6
20260509045721 53 130 1.0 2.0 0.00 0.00 0.00 44 1018.5
20260509045219 54 113 0.0 2.0 0.00 0.00 0.00 44 1018.5
20260509044719 54 115 0.0 2.0 0.00 0.00 0.00 43 1018.5
20260509044212 55 113 0.0 2.0 0.00 0.00 0.00 42 1018.5
20260509043944 55 114 1.0 2.0 0.00 0.00 0.00 42 1018.5
20260509043212 56 119 1.0 2.0 0.00 0.00 0.00 41 1018.4
20260509042713 56 95 0.0 3.0 0.00 0.00 0.00 40 1018.3
20260509042213 56 96 0.0 3.0 0.00 0.00 0.00 40 1018.3
20260509041712 57 115 0.0 3.0 0.00 0.00 0.00 40 1018.3
20260509041207 57 125 1.0 4.0 0.00 0.00 0.00 40 1018.1
20260509040937 57 145 0.0 4.0 0.00 0.00 0.00 40 1018.0
20260509040203 57 117 0.0 3.0 0.00 0.00 0.00 40 1018.0
20260509035701 57 123 0.0 3.0 0.00 0.00 0.00 40 1018.0
20260509035200 57 123 0.0 3.0 0.00 0.00 0.00 40 1017.9
20260509034655 58 119 0.0 3.0 0.00 0.00 0.00 39 1017.9
20260509034151 58 257 0.0 1.0 0.00 0.00 0.00 38 1017.9
20260509033651 59 257 0.0 0.0 0.00 0.00 0.00 37 1017.9
20260509033149 60 257 0.0 0.0 0.00 0.00 0.00 35 1017.8
20260509032649 61 257 0.0 0.0 0.00 0.00 0.00 33 1017.7
20260509032147 62 257 0.0 0.0 0.00 0.00 0.00 32 1017.7
20260509031917 63 256 0.0 0.0 0.00 0.00 0.00 30 1017.7
20260509031146 64 257 0.0 0.0 0.00 0.00 0.00 29 1017.5
20260509030645 65 257 0.0 1.0 0.00 0.00 0.00 28 1017.4
20260509030414 66 257 0.0 1.0 0.00 0.00 0.00 27 1017.3
20260509025915 67 257 0.0 1.0 0.00 0.00 0.00 26 1017.3
20260509025137 67 257 0.0 3.0 0.00 0.00 0.00 25 1017.2
20260509024638 69 257 0.0 3.0 0.00 0.00 0.00 24 1017.1
20260509024139 69 257 0.0 3.0 0.00 0.00 0.00 23 1017.0
20260509023639 70 257 0.0 3.0 0.00 0.00 0.00 22 1016.8
20260509022636 71 258 0.0 7.0 0.00 0.00 0.00 22 1016.7
20260509022135 72 256 0.0 7.0 0.00 0.00 0.00 21 1016.7
20260509021903 72 256 1.0 8.0 0.00 0.00 0.00 21 1016.6
20260509021402 73 281 1.0 8.0 0.00 0.00 0.00 21 1016.6
20260509020631 73 250 0.0 4.0 0.00 0.00 0.00 21 1016.6
20260509020131 73 271 1.0 5.0 0.00 0.00 0.00 21 1016.6
20260509015630 74 266 1.0 6.0 0.00 0.00 0.00 21 1016.5
20260509015125 74 258 1.0 6.0 0.00 0.00 0.00 21 1016.5
20260509014858 74 251 1.0 6.0 0.00 0.00 0.00 20 1016.5
20260509014125 74 271 1.0 6.0 0.00 0.00 0.00 20 1016.5
20260509013625 75 227 1.0 6.0 0.00 0.00 0.00 20 1016.5
20260509013124 75 256 1.0 6.0 0.00 0.00 0.00 20 1016.5
20260509012626 76 262 2.0 7.0 0.00 0.00 0.00 19 1016.5
20260509012347 76 242 3.0 7.0 0.00 0.00 0.00 19 1016.5
20260509011617 77 219 2.0 7.0 0.00 0.00 0.00 19 1016.5
20260509011114 78 233 3.0 8.0 0.00 0.00 0.00 18 1016.5
20260509010611 78 241 2.0 8.0 0.00 0.00 0.00 18 1016.4
20260509010112 78 219 2.0 8.0 0.00 0.00 0.00 18 1016.5
20260509005843 78 251 2.0 9.0 0.00 0.00 0.00 18 1016.4
20260509005111 79 253 3.0 9.0 0.00 0.00 0.00 18 1016.5
20260509004608 79 230 3.0 9.0 0.00 0.00 0.00 19 1016.5
20260509004107 79 196 3.0 9.0 0.00 0.00 0.00 18 1016.6
20260509003605 79 209 3.0 10.0 0.00 0.00 0.00 18 1016.5
20260509003339 80 264 2.0 10.0 0.00 0.00 0.00 18 1016.5
20260509002600 80 252 3.0 10.0 0.00 0.00 0.00 18 1016.5
20260509002057 80 259 3.0 10.0 0.00 0.00 0.00 17 1016.5
20260509001826 80 269 2.0 9.0 0.00 0.00 0.00 18 1016.5
20260509001055 80 243 3.0 11.0 0.00 0.00 0.00 18 1016.4
20260509000554 80 245 3.0 11.0 0.00 0.00 0.00 18 1016.4
20260509000052 80 262 4.0 11.0 0.00 0.00 0.00 17 1016.4
20260508235824 80 290 4.0 11.0 0.00 0.00 0.00 17 1016.4
20260508235052 80 269 3.0 10.0 0.00 0.00 0.00 17 1016.4
20260508234549 80 213 3.0 10.0 0.00 0.00 0.00 18 1016.4
20260508234049 80 231 4.0 10.0 0.00 0.00 0.00 18 1016.4
20260508233548 80 279 4.0 14.0 0.00 0.00 0.00 18 1016.5
20260508233319 80 216 4.0 14.0 0.00 0.00 0.00 18 1016.5
20260508232547 80 285 5.0 15.0 0.00 0.00 0.00 18 1016.4
20260508232047 80 219 4.0 15.0 0.00 0.00 0.00 18 1016.4
20260508231547 81 235 3.0 9.0 0.00 0.00 0.00 18 1016.4
20260508231045 80 250 4.0 13.0 0.00 0.00 0.00 18 1016.5
20260508230546 80 277 5.0 13.0 0.00 0.00 0.00 17 1016.5
20260508230039 81 226 4.0 14.0 0.00 0.00 0.00 17 1016.5
20260508225537 81 280 4.0 14.0 0.00 0.00 0.00 17 1016.5
20260508225307 81 214 5.0 14.0 0.00 0.00 0.00 17 1016.5
20260508224537 81 271 4.0 14.0 0.00 0.00 0.00 16 1016.6
20260508224035 81 245 3.0 14.0 0.00 0.00 0.00 17 1016.5
20260508223535 82 212 3.0 14.0 0.00 0.00 0.00 16 1016.7
20260508223034 82 224 3.0 9.0 0.00 0.00 0.00 17 1016.6
20260508222530 82 252 4.0 10.0 0.00 0.00 0.00 17 1016.7
20260508222029 81 237 4.0 10.0 0.00 0.00 0.00 18 1016.7
20260508221529 82 242 5.0 10.0 0.00 0.00 0.00 16 1016.7
20260508221028 82 266 5.0 11.0 0.00 0.00 0.00 14 1016.8
20260508220524 82 285 5.0 11.0 0.00 0.00 0.00 15 1017.0
20260508220025 82 252 4.0 11.0 0.00 0.00 0.00 15 1017.0
20260508215756 82 281 3.0 9.0 0.00 0.00 0.00 15 1017.0
20260508215023 82 276 3.0 9.0 0.00 0.00 0.00 15 1017.1
20260508214524 82 265 4.0 14.0 0.00 0.00 0.00 15 1017.2
20260508214023 82 244 4.0 14.0 0.00 0.00 0.00 15 1017.3
20260508213523 82 252 4.0 14.0 0.00 0.00 0.00 15 1017.3
20260508213023 81 330 5.0 14.0 0.00 0.00 0.00 15 1017.3
20260508212753 81 210 5.0 12.0 0.00 0.00 0.00 15 1017.3
20260508212021 82 266 4.0 12.0 0.00 0.00 0.00 15 1017.4
20260508211520 81 224 3.0 9.0 0.00 0.00 0.00 17 1017.4
20260508211021 81 269 3.0 10.0 0.00 0.00 0.00 18 1017.5
20260508210518 81 257 4.0 10.0 0.00 0.00 0.00 16 1017.5
20260508210016 80 259 4.0 12.0 0.00 0.00 0.00 16 1017.7
20260508205516 80 6 4.0 12.0 0.00 0.00 0.00 16 1017.7
20260508205012 80 292 4.0 13.0 0.00 0.00 0.00 16 1017.7
20260508204512 80 193 4.0 13.0 0.00 0.00 0.00 16 1017.8
20260508203510 80 276 3.0 13.0 0.00 0.00 0.00 17 1017.9
20260508203242 80 242 4.0 13.0 0.00 0.00 0.00 17 1018.0
20260508202510 80 224 5.0 13.0 0.00 0.00 0.00 16 1018.0
20260508202009 80 51 4.0 14.0 0.00 0.00 0.00 17 1018.1
20260508201511 80 235 4.0 14.0 0.00 0.00 0.00 17 1018.1
20260508201010 80 316 4.0 15.0 0.00 0.00 0.00 17 1018.1
20260508200736 79 296 4.0 15.0 0.00 0.00 0.00 18 1018.3
20260508200007 79 273 6.0 16.0 0.00 0.00 0.00 17 1018.4
20260508195505 79 286 5.0 16.0 0.00 0.00 0.00 16 1018.4
20260508194505 78 261 5.0 14.0 0.00 0.00 0.00 16 1018.5
20260508194009 78 257 5.0 14.0 0.00 0.00 0.00 17 1018.6
20260508193502 78 238 6.0 15.0 0.00 0.00 0.00 17 1018.6
20260508193233 78 251 6.0 15.0 0.00 0.00 0.00 17 1018.6
20260508192502 78 286 5.0 14.0 0.00 0.00 0.00 17 1018.6
20260508192233 78 264 4.0 12.0 0.00 0.00 0.00 16 1018.7
20260508191734 78 164 5.0 12.0 0.00 0.00 0.00 17 1018.7
20260508191003 78 267 5.0 12.0 0.00 0.00 0.00 17 1018.8
20260508190458 78 257 4.0 12.0 0.00 0.00 0.00 17 1019.0
20260508185957 78 266 3.0 12.0 0.00 0.00 0.00 18 1019.0
20260508185458 77 325 4.0 12.0 0.00 0.00 0.00 18 1019.1
20260508184957 77 276 4.0 12.0 0.00 0.00 0.00 18 1019.1
20260508184731 77 318 4.0 12.0 0.00 0.00 0.00 17 1019.2
20260508184232 76 313 4.0 12.0 0.00 0.00 0.00 17 1019.2
20260508183455 76 252 3.0 14.0 0.00 0.00 0.00 18 1019.2
20260508183227 76 281 4.0 14.0 0.00 0.00 0.00 17 1019.2
20260508182455 77 250 4.0 12.0 0.00 0.00 0.00 16 1019.2
20260508182226 76 272 3.0 11.0 0.00 0.00 0.00 17 1019.3
20260508181453 76 259 3.0 13.0 0.00 0.00 0.00 17 1019.3
20260508181227 76 287 4.0 13.0 0.00 0.00 0.00 18 1019.3
20260508180455 75 340 4.0 14.0 0.00 0.00 0.00 17 1019.4
20260508175953 75 285 3.0 14.0 0.00 0.00 0.00 18 1019.4
20260508175455 75 254 3.0 9.0 0.00 0.00 0.00 18 1019.4
20260508174955 75 324 3.0 10.0 0.00 0.00 0.00 19 1019.6
20260508174450 74 242 4.0 10.0 0.00 0.00 0.00 18 1019.6
20260508173951 74 269 3.0 9.0 0.00 0.00 0.00 19 1019.6
20260508173450 74 247 3.0 10.0 0.00 0.00 0.00 19 1019.6
20260508172951 74 17 3.0 10.0 0.00 0.00 0.00 19 1019.7
20260508172452 74 283 2.0 6.0 0.00 0.00 0.00 19 1019.7
20260508171951 74 257 2.0 6.0 0.00 0.00 0.00 20 1019.8
20260508171445 74 275 1.0 6.0 0.00 0.00 0.00 20 1019.8
20260508170445 73 86 2.0 8.0 0.00 0.00 0.00 22 1019.9
20260508165946 73 322 3.0 9.0 0.00 0.00 0.00 19 1019.9
20260508165445 73 273 2.0 9.0 0.00 0.00 0.00 20 1019.9
20260508164947 73 297 2.0 7.0 0.00 0.00 0.00 21 1019.8
20260508164712 72 250 2.0 7.0 0.00 0.00 0.00 21 1019.8
20260508163941 73 309 1.0 6.0 0.00 0.00 0.00 22 1019.8
20260508163442 73 46 1.0 6.0 0.00 0.00 0.00 21 1019.8
20260508162941 72 325 0.0 5.0 0.00 0.00 0.00 22 1019.8
20260508162444 71 31 1.0 6.0 0.00 0.00 0.00 23 1019.8
20260508161943 71 278 2.0 6.0 0.00 0.00 0.00 21 1019.8
20260508161438 71 257 2.0 7.0 0.00 0.00 0.00 21 1019.7
20260508161209 71 254 3.0 7.0 0.00 0.00 0.00 21 1019.8
20260508160440 71 282 2.0 6.0 0.00 0.00 0.00 21 1019.7
20260508155937 71 258 2.0 6.0 0.00 0.00 0.00 21 1019.7
20260508155439 70 268 3.0 6.0 0.00 0.00 0.00 21 1019.7
20260508154939 70 251 3.0 6.0 0.00 0.00 0.00 22 1019.7
20260508154433 69 247 3.0 7.0 0.00 0.00 0.00 20 1019.6
20260508153934 69 240 3.0 7.0 0.00 0.00 0.00 21 1019.7
20260508153705 69 254 3.0 6.0 0.00 0.00 0.00 22 1019.6
20260508152934 69 290 3.0 7.0 0.00 0.00 0.00 20 1019.6
20260508152433 69 247 3.0 7.0 0.00 0.00 0.00 21 1019.6
20260508151936 68 245 2.0 6.0 0.00 0.00 0.00 22 1019.6
20260508151429 68 244 2.0 5.0 0.00 0.00 0.00 21 1019.6
20260508150929 68 272 1.0 5.0 0.00 0.00 0.00 21 1019.7
20260508150703 67 234 0.0 4.0 0.00 0.00 0.00 29 1019.6
20260508145929 65 115 1.0 4.0 0.00 0.00 0.00 35 1019.6
20260508145431 64 113 2.0 4.0 0.00 0.00 0.00 37 1019.7
20260508144931 62 91 2.0 4.0 0.00 0.00 0.00 34 1019.7
20260508144426 62 104 1.0 4.0 0.00 0.00 0.00 36 1019.6
20260508143926 61 125 1.0 6.0 0.00 0.00 0.00 38 1019.6
20260508143427 60 68 2.0 6.0 0.00 0.00 0.00 39 1019.4
20260508142926 59 150 4.0 7.0 0.00 0.00 0.00 38 1019.6
20260508142426 58 79 4.0 7.0 0.00 0.00 0.00 38 1019.6
20260508141927 57 61 4.0 7.0 0.00 0.00 0.00 38 1019.4
20260508141422 56 79 4.0 7.0 0.00 0.00 0.00 40 1019.4
20260508140922 54 46 4.0 7.0 0.00 0.00 0.00 43 1019.4
20260508140653 53 96 4.0 7.0 0.00 0.00 0.00 43 1019.4
20260508135921 52 83 4.0 7.0 0.00 0.00 0.00 44 1019.3
20260508134923 49 91 2.0 7.0 0.00 0.00 0.00 49 1019.3
20260508133918 47 86 2.0 6.0 0.00 0.00 0.00 51 1019.3
20260508133419 46 113 0.0 5.0 0.00 0.00 0.00 54 1019.4
20260508133150 45 110 0.0 4.0 0.00 0.00 0.00 55 1019.3
20260508131415 42 133 1.0 2.0 0.00 0.00 0.00 58 1019.3
20260508130914 41 140 1.0 2.0 0.00 0.00 0.00 60 1019.3
20260508130413 40 133 1.0 2.0 0.00 0.00 0.00 62 1019.3
20260508125914 39 118 0.0 2.0 0.00 0.00 0.00 64 1019.3
20260508125414 38 155 0.0 2.0 0.00 0.00 0.00 64 1019.3
20260508124915 38 117 1.0 3.0 0.00 0.00 0.00 64 1019.2
20260508124141 38 137 2.0 5.0 0.00 0.00 0.00 63 1019.1
20260508123410 38 124 2.0 5.0 0.00 0.00 0.00 63 1019.0
20260508123140 38 147 2.0 5.0 0.00 0.00 0.00 63 1019.0
20260508122410 38 112 2.0 5.0 0.00 0.00 0.00 63 1019.0
20260508121911 37 121 1.0 4.0 0.00 0.00 0.00 64 1018.8
20260508121405 37 170 0.0 2.0 0.00 0.00 0.00 64 1018.8
20260508120907 37 170 0.0 2.0 0.00 0.00 0.00 64 1018.7
20260508120406 37 150 0.0 2.0 0.00 0.00 0.00 64 1018.7
20260508115906 37 138 0.0 2.0 0.00 0.00 0.00 64 1018.6
20260508115406 38 138 1.0 3.0 0.00 0.00 0.00 63 1018.6
20260508114907 38 137 2.0 4.0 0.00 0.00 0.00 63 1018.6
20260508114633 38 96 2.0 4.0 0.00 0.00 0.00 63 1018.6
20260508114134 38 115 1.0 3.0 0.00 0.00 0.00 62 1018.5
20260508113404 38 130 1.0 5.0 0.00 0.00 0.00 62 1018.6
20260508112902 38 150 0.0 5.0 0.00 0.00 0.00 61 1018.5
20260508112403 39 84 1.0 5.0 0.00 0.00 0.00 60 1018.5
20260508111903 39 84 1.0 5.0 0.00 0.00 0.00 61 1018.4
20260508111627 38 140 0.0 1.0 0.00 0.00 0.00 61 1018.4
20260508110853 39 193 0.0 4.0 0.00 0.00 0.00 61 1018.4
20260508110349 39 194 1.0 4.0 0.00 0.00 0.00 61 1018.4
20260508105843 39 115 2.0 4.0 0.00 0.00 0.00 60 1018.5
20260508105343 39 155 2.0 4.0 0.00 0.00 0.00 60 1018.5
20260508105108 39 149 1.0 3.0 0.00 0.00 0.00 60 1018.5
20260508104332 39 157 0.0 2.0 0.00 0.00 0.00 59 1018.5
20260508103827 39 144 0.0 2.0 0.00 0.00 0.00 59 1018.5
20260508103323 39 145 0.0 2.0 0.00 0.00 0.00 59 1018.5
20260508102817 39 209 0.0 3.0 0.00 0.00 0.00 59 1018.5
20260508102315 40 162 0.0 3.0 0.00 0.00 0.00 58 1018.6
20260508101305 40 143 1.0 4.0 0.00 0.00 0.00 58 1018.5
20260508101033 40 146 1.0 4.0 0.00 0.00 0.00 58 1018.5
20260508100259 40 120 1.0 4.0 0.00 0.00 0.00 57 1018.5
20260508095752 40 117 2.0 5.0 0.00 0.00 0.00 57 1018.5
20260508095249 40 112 2.0 5.0 0.00 0.00 0.00 57 1018.5
20260508095013 40 97 1.0 5.0 0.00 0.00 0.00 57 1018.5
20260508094239 40 117 1.0 4.0 0.00 0.00 0.00 58 1018.5
20260508093736 40 117 1.0 4.0 0.00 0.00 0.00 58 1018.5
20260508093237 40 131 1.0 4.0 0.00 0.00 0.00 58 1018.5
20260508092736 40 115 1.0 5.0 0.00 0.00 0.00 58 1018.5
20260508092237 40 235 0.0 5.0 0.00 0.00 0.00 57 1018.5
20260508091737 41 118 1.0 5.0 0.00 0.00 0.00 56 1018.6
20260508091507 41 120 2.0 5.0 0.00 0.00 0.00 56 1018.6
20260508090738 41 105 1.0 4.0 0.00 0.00 0.00 56 1018.6
20260508090236 41 120 1.0 3.0 0.00 0.00 0.00 56 1018.6
20260508085737 41 147 1.0 3.0 0.00 0.00 0.00 56 1018.6
20260508085231 41 130 1.0 2.0 0.00 0.00 0.00 55 1018.6
20260508084957 41 133 0.0 2.0 0.00 0.00 0.00 56 1018.6
20260508084221 41 141 0.0 2.0 0.00 0.00 0.00 56 1018.7
20260508083718 41 141 0.0 3.0 0.00 0.00 0.00 55 1018.7
20260508083213 41 130 0.0 3.0 0.00 0.00 0.00 55 1018.8
20260508082708 41 133 1.0 3.0 0.00 0.00 0.00 54 1018.7
20260508082203 41 140 1.0 4.0 0.00 0.00 0.00 54 1018.8
20260508081657 42 133 1.0 4.0 0.00 0.00 0.00 53 1018.7
20260508081425 42 151 1.0 4.0 0.00 0.00 0.00 53 1018.8
20260508080647 42 134 1.0 4.0 0.00 0.00 0.00 52 1018.8
20260508080143 42 148 1.0 5.0 0.00 0.00 0.00 52 1019.0
20260508075643 43 80 2.0 5.0 0.00 0.00 0.00 51 1019.0
20260508075141 43 91 1.0 5.0 0.00 0.00 0.00 51 1019.0
20260508074644 43 152 1.0 4.0 0.00 0.00 0.00 51 1019.1
20260508074416 43 153 1.0 4.0 0.00 0.00 0.00 51 1019.1
20260508073643 42 106 0.0 4.0 0.00 0.00 0.00 52 1019.1
20260508073143 42 170 0.0 2.0 0.00 0.00 0.00 52 1019.1
20260508072642 42 147 0.0 2.0 0.00 0.00 0.00 52 1019.1
20260508072143 42 148 0.0 3.0 0.00 0.00 0.00 52 1019.1
20260508071637 43 124 0.0 3.0 0.00 0.00 0.00 51 1019.2
20260508071136 43 150 1.0 3.0 0.00 0.00 0.00 50 1019.1
20260508070136 43 124 1.0 4.0 0.00 0.00 0.00 50 1019.2
20260508065634 43 144 0.0 3.0 0.00 0.00 0.00 50 1019.2
20260508065406 43 120 0.0 3.0 0.00 0.00 0.00 49 1019.2
20260508064635 43 115 0.0 3.0 0.00 0.00 0.00 49 1019.2
20260508064135 44 133 0.0 3.0 0.00 0.00 0.00 48 1019.2
20260508063633 44 159 0.0 2.0 0.00 0.00 0.00 48 1019.2